Effective Sunday, March 17, 2024, the National Weather Service National Data Buoy Center will discontinue its Dial-A-Buoy Interactive Voice Response system. For more information, see Service Change Notice 24-06 (PDF).

Station 42036 (LLNR 855) - WEST TAMPA - 112 NM WNW of Tampa, FL Image indicating link to RSS feed of recent meteorological observations for station 42036


Conditions at 42036 as of
(5:10 pm CST)
2310 GMT on 03/03/2024:
     

Click on the graph icon in the table below to see a time series plot of the last five days of that observation.

5-day plot - Wind Direction Wind Direction (WDIR): E ( 90 deg true )
5-day plot - Wind Speed Wind Speed (WSPD): 5.8 kts
5-day plot - Wind Gust Wind Gust (GST): 5.8 kts
5-day plot - Atmospheric Pressure Atmospheric Pressure (PRES):30.03 in
5-day plot - Air Temperature Air Temperature (ATMP): 70.3 °F
5-day plot - Dew Point Dew Point (DEWP): 69.6 °F
5-day plot - Wind Speed at 10 Meters Wind Speed at 10 meters (WSPD10M): 5.8 kts
5-day plot - Wind Speed at 20 Meters Wind Speed at 20 meters (WSPD20M): 5.8 kts
5-day plot -  Wind Speed, Wind Gust and Atmospheric Pressure Combined plot of Wind Speed, Gust, and Air Pressure
Supplemental Measurements
Highest 1-minute Wind Speed
Time (CST)5-day plot - 1-Minute Wind Speed WSPD 5-day plot - 1-Minute Wind Direction WDIR
5:06 pm 5.8 kts-
Previous observations
TIME
(CST)
5-day plot - Wind Direction
WDIR
 
5-day plot - Wind Speed
WSPD
kts
5-day plot - Wind Gust
GST
kts
5-day plot - Wave Height
WVHT
ft
5-day plot - Dominant Wave Period
DPD
sec
5-day plot - Average Wave Period
APD
sec
5-day plot - Mean Wave Direction
MWD
 
5-day plot - Atmospheric Pressure
PRES
in
5-day plot - Pressure Tendency
PTDY
in
5-day plot - Air Temperature
ATMP
°F
5-day plot - Water Temperature
WTMP
°F
5-day plot - Dew Point
DEWP
°F
5-day plot - Salinity
SAL
psu
5-day plot - Visibility
VIS
nmi
5-day plot - Tide (above MLLW)
TIDE
ft
2024-03-03 05:00 pm E 3.9 5.8----30.03-0.02 70.5- 69.6---
2024-03-03 04:50 pm E 3.9 5.8 1.3 63.9SSW30.02- 70.7- 69.8---
2024-03-03 04:40 pm E 5.8 5.8----30.02- 70.5- 69.6---
2024-03-03 04:30 pm E 3.9 5.8----30.02- 70.7- 69.8---
2024-03-03 04:20 pmESE 3.9 5.8----30.02- 70.5- 69.6---
2024-03-03 04:10 pmESE 3.9 5.8----30.02- 70.5- 69.6---
2024-03-03 04:00 pm E 3.9 5.8----30.02-0.04 70.5- 69.6---
2024-03-03 03:50 pm E 3.9 5.8 1.3 33.7 SE30.02- 70.5- 69.8---
2024-03-03 03:40 pmESE 3.9 5.8 1.3-3.7 SE30.03- 70.5- 70.0---
2024-03-03 03:30 pmESE 3.9 5.8----30.03- 70.3- 69.8---
2024-03-03 03:20 pmESE 3.9 5.8 1.3 63.7 S30.03- 70.3- 70.0---
2024-03-03 03:10 pm SE 5.8 5.8 1.3-3.7 S30.03- 70.2- 69.8---
2024-03-03 03:00 pm SE 5.8 7.8----30.03-0.05 70.2- 70.0---
2024-03-03 02:50 pm SE 5.8 7.8 1.3 33.5 SE30.03- 70.2- 70.0---
2024-03-03 02:40 pm SE 5.8 7.8 1.3-3.5 SE30.03- 70.2- 70.0---
2024-03-03 02:30 pm SE 5.8 7.8----30.04- 70.2- 70.0---
2024-03-03 02:20 pm SE 7.8 7.8 1.3 63.5 S30.04- 70.2- 70.0---
2024-03-03 02:10 pm SE 7.8 9.7 1.3-3.5 S30.04- 70.2- 70.0---
2024-03-03 02:00 pm SE 7.8 9.7----30.05-0.05 70.2- 69.8---
2024-03-03 01:50 pmSSE 7.8 9.7 1.3 33.6 SE30.05- 70.2- 69.8---
2024-03-03 01:40 pmSSE 7.8 9.7----30.05- 70.2- 69.6---
2024-03-03 01:30 pmSSE 7.8 9.7----30.06- 70.2- 69.8---
2024-03-03 01:20 pmSSE 7.8 9.7 1.3 43.4SSE30.06- 70.2- 69.8---
2024-03-03 01:10 pmSSE 7.8 9.7 1.3-3.4SSE30.06- 70.2- 69.6---
2024-03-03 01:00 pmSSE 7.8 9.7----30.06-0.05 70.2- 69.6---
2024-03-03 12:50 pmSSE 7.8 9.7 1.6 63.5SSW30.06- 70.2- 69.4---
2024-03-03 12:40 pmSSE 7.8 9.7 1.6-3.5SSW30.07- 70.2- 69.4---
2024-03-03 12:30 pmSSE 7.8 9.7----30.07- 70.2- 69.3---
2024-03-03 12:20 pm SE 7.8 9.7 1.6 43.5SSE30.07- 70.0- 69.1---
2024-03-03 12:10 pm SE 7.8 9.7 1.6-3.5SSE30.08- 70.2- 69.3---
2024-03-03 12:00 pm SE 7.8 9.7----30.08-0.03 70.2- 69.3---
2024-03-03 11:50 am SE 7.8 9.7 1.6 43.5SSE30.08- 70.0- 69.1---
2024-03-03 11:40 am SE 7.8 11.7----30.09- 70.0- 69.1---
2024-03-03 11:30 am SE 9.7 11.7----30.09- 70.0- 69.1---
2024-03-03 11:20 am SE 9.7 11.7 1.6 43.4SSE30.09- 69.8- 68.9---
2024-03-03 11:10 am SE 9.7 9.7 1.6-3.4SSE30.10- 69.8- 69.1---
2024-03-03 11:00 am SE 7.8 11.7----30.10-0.01 69.8- 69.3---
2024-03-03 10:50 am SE 7.8 9.7 2.0 43.3SSE30.10- 69.8- 69.3---
2024-03-03 10:40 am SE 9.7 11.7----30.11- 69.8- 69.3---
2024-03-03 10:30 am SE 11.7 13.6----30.11- 69.8- 69.3---
2024-03-03 10:20 am SE 9.7 11.7 2.0 43.3SSE30.11- 69.6- 69.1---
2024-03-03 10:10 am SE 11.7 13.6 2.0-3.3SSE30.11- 69.6- 68.7---
2024-03-03 10:00 am SE 11.7 13.6----30.11+0.01 69.8- 68.7---
2024-03-03 09:50 am SE 11.7 13.6 2.0 43.3SSE30.11- 69.8- 68.9---
2024-03-03 09:40 am SE 11.7 13.6----30.11- 69.8- 69.3---
2024-03-03 09:30 am SE 11.7 13.6----30.11- 69.8- 69.6---
2024-03-03 09:20 am SE 11.7 15.5 1.6 33.2 SE30.11- 69.6- 69.6---
2024-03-03 09:10 am SE 11.7 13.6 1.6-3.2 SE30.11- 68.9- 68.9---
2024-03-03 09:00 am SE 13.6 17.5----30.11+0.03 68.7- 68.7---
2024-03-03 08:50 am SE 11.7 15.5 2.0 33.2 SE30.11- 68.9- 68.9---
2024-03-03 08:40 am SE 11.7 15.5 2.0-3.2 SE30.11- 68.7- 68.7---
2024-03-03 08:30 am SE 11.7 13.6----30.11- 68.7- 68.7---
2024-03-03 08:20 am SE 13.6 15.5 1.6 33.2 SE30.11- 68.5- 68.5---
2024-03-03 08:10 am SE 11.7 15.5 1.6-3.2 SE30.11- 68.7- 68.7---
2024-03-03 08:00 am SE 11.7 13.6----30.11+0.04 68.5- 68.5---
2024-03-03 07:50 am SE 11.7 13.6 1.6 33.2 SE30.11- 68.5- 68.5---
2024-03-03 07:40 amESE 11.7 13.6----30.11- 68.7- 68.7---
2024-03-03 07:30 am SE 13.6 15.5----30.10- 68.9- 68.9---
2024-03-03 07:20 amESE 11.7 15.5 1.6 53.2SSW30.11- 69.3- 69.3---
2024-03-03 07:10 amESE 9.7 11.7 1.6-3.2SSW30.10- 69.1- 69.1---
2024-03-03 07:00 am E 7.8 11.7----30.10+0.04 69.3- 69.3---
2024-03-03 06:50 am E 7.8 11.7 1.3 53.4 SW30.10- 69.3- 69.3---
2024-03-03 06:40 amESE 7.8 9.7----30.10- 69.1- 69.1---
2024-03-03 06:30 am E 7.8 9.7----30.09- 68.7- 68.7---
2024-03-03 06:20 am E 7.8 9.7 1.3 43.4 S30.09- 68.7- 68.7---
2024-03-03 06:10 am E 7.8 7.8 1.3-3.4 S30.09- 68.4- 68.4---
2024-03-03 06:00 am E 5.8 7.8----30.08+0.03 68.4- 68.4---
2024-03-03 05:50 am E 5.8 5.8 1.3 43.6 S30.08- 68.4- 68.4---
2024-03-03 05:40 am E 5.8 7.8----30.07- 68.4- 68.4---
2024-03-03 05:30 am E 5.8 7.8----30.07- 68.0- 68.0---
2024-03-03 05:20 amENE 5.8 7.8 1.3 63.6 SW30.07- 67.8- 67.8---
2024-03-03 05:10 am E 7.8 9.7 1.3-3.6 SW30.07- 67.6- 67.6---
2024-03-03 05:00 am E 7.8 9.7----30.07+0.01 67.6- 67.6---
2024-03-03 04:50 am E 7.8 11.7 1.3 63.6SSW30.06- 67.6- 67.6---
2024-03-03 04:40 am E 9.7 11.7----30.06- 67.8- 67.8---
2024-03-03 04:30 am E 9.7 11.7----30.06- 67.8- 67.8---
2024-03-03 04:20 am E 9.7 11.7 1.3 63.8SSW30.06- 67.8- 67.8---
2024-03-03 04:10 am E 9.7 11.7 1.3-3.8SSW30.06- 68.0- 68.0---
2024-03-03 04:00 am E 11.7 13.6----30.06-0.02 68.2- 68.2---
2024-03-03 03:50 am E 9.7 11.7 1.3 53.8SSE30.06- 68.5- 68.5---
2024-03-03 03:40 am E 7.8 9.7----30.06- 68.7- 68.5---
2024-03-03 03:30 amESE 5.8 7.8----30.06- 68.7- 68.5---
2024-03-03 03:20 amESE 5.8 7.8 1.3 43.8SSW30.06- 68.7- 68.5---
2024-03-03 03:10 amESE 5.8 7.8 1.3-3.8SSW30.06- 68.5- 68.4---
2024-03-03 03:00 amESE 5.8 7.8----30.05-0.04 68.4- 68.4---
2024-03-03 02:50 am E 5.8 7.8 1.3 63.8SSW30.05- 68.4- 68.2---
2024-03-03 02:40 amESE 5.8 7.8 1.3-3.8SSW30.05- 68.2- 68.0---
2024-03-03 02:30 am E 5.8 7.8----30.05- 68.2- 68.0---
2024-03-03 02:20 am E 5.8 7.8 1.3 63.9SSW30.05- 68.2- 68.0---
2024-03-03 02:10 am E 7.8 9.7 1.3-3.9SSW30.05- 68.2- 67.8---
2024-03-03 02:00 am E 7.8 9.7----30.06-0.04 68.2- 67.6---
2024-03-03 01:50 am E 7.8 9.7 1.3 54.0 S30.06- 68.2- 67.6---
2024-03-03 01:40 am E 7.8 9.7----30.07- 68.2- 67.6---
2024-03-03 01:30 am E 7.8 7.8----30.07- 68.2- 67.5---
2024-03-03 01:20 am E 7.8 7.8 1.3 64.0SSW30.08- 68.2- 67.3---
2024-03-03 01:10 am E 7.8 7.8 1.3-4.0SSW30.08- 68.4- 67.5---
2024-03-03 01:00 am E 7.8 7.8----30.09-0.02 68.4- 67.5---
2024-03-03 12:50 am E 7.8 9.7 1.3 54.0 S30.09- 68.5- 67.3---
2024-03-03 12:40 amESE 7.8 7.8 1.3-4.0 S30.09- 68.7- 67.3---
2024-03-03 12:30 amESE 7.8 9.7----30.09- 68.7- 67.1---
2024-03-03 12:20 amESE 7.8 9.7 1.3 64.1SSW30.10- 68.7- 66.9---
2024-03-03 12:10 am E 5.8 7.8----30.10- 68.7- 66.7---
2024-03-03 12:00 am E 5.8 7.8----30.10-0.01 68.9- 66.7---
2024-03-02 11:50 pm E 5.8 7.8 1.3 54.1SSE30.10- 68.9- 66.4---
2024-03-02 11:40 pm E 5.8 5.8----30.10- 68.7- 66.6---
2024-03-02 11:30 pm E 5.8 7.8----30.09- 68.9- 66.6---
2024-03-02 11:20 pmENE 5.8 5.8 1.3 64.0SSW30.09- 68.7- 66.6---
2024-03-02 11:10 pmENE 3.9 5.8 1.3-4.0SSW30.10- 68.9- 67.1---
2024-03-02 11:00 pmENE 5.8 5.8----30.10+0.00 68.9- 66.7---
2024-03-02 10:50 pm NE 3.9 5.8 1.3 64.0 S30.11- 69.1- 67.1---
2024-03-02 10:40 pmENE 3.9 3.9----30.11- 69.3- 66.9---
2024-03-02 10:30 pm NE 3.9 5.8----30.11- 69.3- 66.9---
2024-03-02 10:20 pm E 3.9 5.8 1.3 54.2SSW30.11- 69.4- 66.7---
2024-03-02 10:10 pmESE 5.8 5.8 1.3-4.2SSW30.11- 69.4- 66.7---
2024-03-02 10:00 pmESE 5.8 7.8----30.11+0.01 69.4- 66.7---
2024-03-02 09:50 pm E 7.8 9.7 1.6 64.2 S30.10- 69.3- 66.7---
2024-03-02 09:40 pm E 7.8 9.7----30.10- 69.3- 66.6---
2024-03-02 09:30 pmESE 5.8 7.8----30.11- 69.3- 66.6---
2024-03-02 09:20 pm E 7.8 9.7 1.6 64.0SSW30.11- 69.3- 66.6---
2024-03-02 09:10 pm E 7.8 9.7 1.6-4.0SSW30.10- 69.1- 66.4---
2024-03-02 09:00 pm E 5.8 7.8----30.11+0.00 69.1- 66.6---
2024-03-02 08:50 pmENE 5.8 5.8 1.6 74.0SSW30.11- 69.1- 66.7---
2024-03-02 08:40 pm NE 3.9 5.8----30.11- 69.1- 66.7---
2024-03-02 08:30 pmENE 1.9 3.9----30.11- 69.1- 66.7---
2024-03-02 08:20 pmENE 5.8 7.8 1.6 63.9 S30.11- 69.1- 66.6---
2024-03-02 08:10 pm E 5.8 7.8 1.6-3.9 S30.11- 69.1- 66.6---
2024-03-02 08:00 pm E 7.8 9.7----30.10+0.00 69.1- 66.4---
2024-03-02 07:50 pm E 9.7 11.7 1.6 63.9SSW30.10- 69.3- 66.2---
2024-03-02 07:40 pmESE 7.8 9.7 1.6-3.9SSW30.09- 68.9- 66.4---
2024-03-02 07:30 pm E 9.7 11.7----30.09- 68.7- 66.7---
2024-03-02 07:20 pm E 11.7 13.6 2.0 74.2SSW30.09- 68.7- 67.1---
2024-03-02 07:10 pm E 9.7 11.7 2.0-4.2SSW30.09- 68.7- 66.9---
2024-03-02 07:00 pm E 9.7 11.7----30.09+0.01 68.7- 67.1---
2024-03-02 06:50 pm E 9.7 11.7 1.6 74.0SSW30.09- 68.7- 66.9---
2024-03-02 06:40 pm E 7.8 9.7 1.6-4.0SSW30.10- 68.7- 66.6---
2024-03-02 06:30 pm E 5.8 7.8----30.09- 68.7- 66.4---
2024-03-02 06:20 pm E 5.8 7.8 2.0 74.0SSW30.10- 68.7- 66.4---
2024-03-02 06:10 pm E 5.8 7.8 2.0-4.0SSW30.10- 68.7- 66.6---
2024-03-02 06:00 pm E 5.8 7.8----30.10+0.01 68.7- 66.4---
2024-03-02 05:50 pm E 5.8 5.8 2.0 73.8SSW30.10- 68.7- 66.2---
2024-03-02 05:40 pmENE 5.8 5.8----30.10- 68.7- 66.2---
2024-03-02 05:20 pm NE 7.8 9.7 2.0 64.0SSW30.09- 68.5- 66.4---
2024-03-02 05:10 pm NE 5.8 7.8----30.10- 68.5- 66.7---
2024-03-02 05:00 pm NE 5.8 11.7----30.10+0.03 68.5- 66.9---
2024-03-02 04:50 pm NE 11.7 13.6 2.0 54.0SSW30.07- 68.5- 66.7---

Detailed Wave Summary
for 42036 as of (4:40 pm CST)
2240 GMT on 03/03/2024:

These wave data are displayed in rounded times.

     

Click on the graph icon in the table below to see a time series plot of the last five days of that observation.

5-day plot - Significant Wave Height Significant Wave Height (WVHT): 1.3 ft
5-day plot - Swell Height Swell Height (SwH): 1.0 ft
5-day plot - Swell Period Swell Period (SwP): 6.2 sec
5-day plot - Swell Direction Swell Direction (SwD):SSW
5-day plot - Wind Wave Height Wind Wave Height (WWH): 1.0 ft
5-day plot - Wind Wave Period Wind Wave Period (WWP): 3.8 sec
5-day plot - Wind Wave Direction Wind Wave Direction (WWD):SSE
5-day plot - Average Wave Period Average Wave Period (APD): 3.9 sec
Previous observations
TIME
(CST)
5-day plot - Wave Height
WVHT
ft
5-day plot - Swell Height
SwH
ft
5-day plot - Swell Period
SwP
sec
5-day plot - Swell Direction
SwD
 
5-day plot - Wind Wave Height
WWH
ft
5-day plot - Wind Wave Period
WWP
sec
5-day plot - Wind Wave Direction
WWD
 
5-day plot - Wave Steepness
STEEPNESS
 
5-day plot - Average Wave Period
APD
sec
2024-03-03 03:40 pm 1.3 1.0 6.7 S 1.0 3.4 SE N/A 3.7
2024-03-03 03:10 pm 1.3 1.0 6.2 S 1.0 3.4 SSE N/A 3.7
2024-03-03 02:40 pm 1.3 0.7 6.7 S 1.0 3.4 SE N/A 3.5
2024-03-03 02:10 pm 1.3 1.0 5.6 S 1.0 3.3 SE N/A 3.5
2024-03-03 01:40 pm 1.3 1.0 6.2SSW 1.0 3.3 SE N/A 3.6
2024-03-03 01:10 pm 1.3 0.7 4.8SSW 1.3 3.6 SSE N/A 3.4
2024-03-03 12:40 pm 1.6 1.0 5.9SSW 1.3 3.6 SSE N/A 3.5
2024-03-03 12:10 pm 1.6 1.0 5.3SSW 1.3 3.7 SSE N/A 3.5
2024-03-03 11:40 am 1.6 1.0 5.3SSW 1.3 3.7 SSE N/A 3.5
2024-03-03 11:10 am 1.6 1.0 5.9SSW 1.3 3.7 SSE N/A 3.4
2024-03-03 10:40 am 2.0 1.0 6.2SSW 1.6 3.7 SSE N/A 3.3
2024-03-03 10:10 am 2.0 0.7 5.9SSW 1.6 3.6 SSE N/A 3.3
2024-03-03 09:40 am 2.0 0.7 6.2 S 2.0 3.6 SSE N/A 3.3
2024-03-03 09:10 am 1.6 0.7 5.9SSW 1.6 3.0 SE N/A 3.2
2024-03-03 08:40 am 2.0 0.7 6.7 S 1.6 3.3 SE N/A 3.2
2024-03-03 08:10 am 1.6 0.7 6.2SSW 1.6 3.0 SE N/A 3.2
2024-03-03 07:40 am 1.6 0.7 6.7SSW 1.6 3.1 SE N/A 3.2
2024-03-03 07:10 am 1.6 1.0 4.5SSW 1.3 3.4 SSE N/A 3.2
2024-03-03 06:40 am 1.3 1.0 4.8 SW 1.0 3.7 SSE N/A 3.4
2024-03-03 06:10 am 1.3 1.0 4.3 S 1.0 4.0 S N/A 3.4
2024-03-03 05:40 am 1.3 1.0 4.3 S 1.0 4.0 S N/A 3.6
2024-03-03 05:10 am 1.3 1.0 5.6 SW 1.0 2.2 ESE N/A 3.6
2024-03-03 04:40 am 1.3 1.0 5.9SSW 1.0 4.0 SSE N/A 3.6
2024-03-03 04:10 am 1.3 0.7 5.6SSW 1.0 4.3 S N/A 3.8
2024-03-03 03:40 am 1.3 1.0 4.5SSE 0.7 3.7 SSE N/A 3.8
2024-03-03 03:10 am 1.3 1.0 4.3SSW 0.7 3.6 S N/A 3.8
2024-03-03 02:40 am 1.3 1.0 6.2SSW 0.7 3.6 SSW N/A 3.8
2024-03-03 02:10 am 1.3 1.0 6.2SSW 0.7 3.7 S N/A 3.9
2024-03-03 01:40 am 1.3 1.0 4.8 S 0.7 3.8 SSW N/A 4.0
2024-03-03 01:10 am 1.3 1.0 6.2SSW 0.7 3.3 SSE N/A 4.0
2024-03-03 12:40 am 1.3 1.0 5.0 S 0.7 3.8 S N/A 4.0
2024-03-03 12:10 am 1.3 1.0 6.2SSW 0.7 3.6 SW N/A 4.1
2024-03-02 11:40 pm 1.3 1.0 4.5SSE 0.7 3.6 SW N/A 4.1
2024-03-02 11:10 pm 1.3 1.0 5.6SSW 1.0 3.7 SSW N/A 4.0
2024-03-02 10:40 pm 1.3 1.0 5.9 S 1.0 3.7 SSW N/A 4.0
2024-03-02 10:10 pm 1.3 1.3 5.0SSW 0.7 3.8 SSW N/A 4.2
2024-03-02 09:40 pm 1.6 1.3 5.9 S 1.0 3.7 SSW N/A 4.2
2024-03-02 09:10 pm 1.6 1.3 6.2SSW 1.0 4.0 S N/A 4.0
2024-03-02 08:40 pm 1.6 1.3 6.7SSW 1.0 3.6 SSW N/A 4.0
2024-03-02 08:10 pm 1.6 1.3 5.9 S 1.0 4.0 SW N/A 3.9
2024-03-02 07:40 pm 1.6 1.3 6.2SSW 1.0 3.1 S N/A 3.9
2024-03-02 07:10 pm 2.0 1.3 7.1SSW 1.3 4.0 S N/A 4.2
2024-03-02 06:40 pm 1.6 1.3 6.7SSW 1.0 3.4 SSW N/A 4.0
2024-03-02 06:10 pm 2.0 1.6 7.1SSW 1.0 3.6 SSW N/A 4.0
2024-03-02 05:40 pm 2.0 1.6 7.1SSW 1.3 4.0 SW N/A 3.8
2024-03-02 05:10 pm 2.0 1.6 6.2SSW 1.0 4.0 WSW N/A 4.0

Plot of wave energy versus frequency (and period)